Flag for Canada Weather past 2 weeks in Sidney, British Columbia, Canada

Now
46 °F

Passing clouds.


Feels Like: 45 °F
Forecast: 51 / 61 °F
Wind: 3 mph from Southwest

Location: Victoria Int. Airportb. C.

Current Time: Sep 3, 2015 at 2:38:10 AM

Latest Report: Sep 3, 2015 at 2:00 AM


Visibility: 20 mi

Pressure: 29.94 "Hg

Humidity: 93%

Dew point: 45 °F

Location of SidneyLocation

Historic Weather in Sidney — Graph

°F

Sidney temperature yesterday

Maximum temperature yesterday: 59 °F (at 6:00 PM)
Minimum temperature yesterday: 48 °F (at 5:00 AM)
Average temperature yesterday: 54 °F

Past Weeks' High & Low Weather Summary

 TemperatureHumidityPressure
High77 °F (Aug 19, 4:00 PM)100% (Aug 28, 6:00 AM)30.13 "Hg (Aug 28, 6:00 AM)
Low48 °F (Sep 2, 5:00 AM)33% (Aug 24, 8:00 PM)29.40 "Hg (Aug 29, 11:00 AM)
Average62 °F73%29.90 "Hg
* Reported Aug 19 1:00 AM — Sep 3 1:00 AM, Sidney, Weather by CustomWeather, © 2015

Note: Actual official high and low records may vary slightly from our data, if they occured in-between our weather recording intervals... More about our weather records

Advertising

Sidney weather history for previous 24 hours

 ConditionsComfort  
Time TempWeatherWind HumidityBarometerVisibility
1:00 AM
Thu, Sep 3
50 °FPassing clouds.3 mph88%29.93 "Hg30 mi
12:00 AM52 °FPassing clouds.7 mph82%29.93 "Hg30 mi
11:00 PM
Wed, Sep 2
54 °FPassing clouds.7 mph77%29.93 "Hg30 mi
10:00 PM52 °FPartly cloudy.5 mph88%29.93 "Hg30 mi
9:00 PM55 °FPartly cloudy.7 mph72%29.92 "Hg30 mi
8:00 PM55 °FBroken clouds.7 mph82%29.91 "Hg30 mi
7:00 PM57 °FBroken clouds.6 mph82%29.90 "Hg30 mi
6:00 PM59 °FBroken clouds.8 mph77%29.89 "Hg30 mi
5:00 PM57 °FBroken clouds.7 mph82%29.89 "Hg30 mi
4:00 PM55 °FPartly sunny.5 mph82%29.89 "Hg15 mi
3:00 PM54 °FRain showers. Broken clouds.12 mph82%29.90 "Hg8 mi
2:00 PM52 °FLots of rain. Fog.2 mph88%29.91 "Hg5 mi
1:00 PM52 °FLots of rain. Fog.3 mph94%29.90 "Hg3 mi
12:00 PM55 °FSprinkles. Partly sunny.12 mph77%29.90 "Hg10 mi
11:00 AM57 °FPartly sunny.15 mph82%29.87 "Hg15 mi
10:00 AM55 °FSprinkles. Partly sunny.12 mph88%29.86 "Hg15 mi
9:00 AM54 °FPartly sunny.7 mph94%29.85 "Hg30 mi
8:00 AM52 °FLight rain. Partly sunny.6 mph94%29.85 "Hg30 mi
7:00 AM54 °FLight rain. Passing clouds.14 mph82%29.83 "Hg20 mi
6:00 AM48 °FLight rain. Passing clouds.8 mph94%29.81 "Hg30 mi
5:00 AM48 °FPassing clouds.2 mph87%29.80 "Hg30 mi
4:00 AM54 °FPassing clouds.3 mph82%29.80 "Hg30 mi
3:00 AM52 °FPassing clouds.2 mph82%29.78 "Hg30 mi
2:00 AM50 °FPassing clouds.6 mph88%29.78 "Hg30 mi
Weather by CustomWeather, © 2015

See weather overviewHow to use our weather pages